Regional Weather Roundup
Issued by NWS

Home | Current Version | Previous Version | Graphics & Text | Print | Product List | Glossary On
Versions: 1 2 3 4 5 6 7 8 9 10 11 12 13 14 15 16 17 18 19 20 21 22 23 24 25 26 27 28 29 30 31 32 33 34 35 36 37 38 39 40 41 42 43 44 45 46 47 48 49 50
000
ASUS43 KMKX 240211
RWRWI

WISCONSIN REGIONAL WEATHER ROUNDUP
NATIONAL WEATHER SERVICE MILWAUKEE/SULLIVAN WI
900 PM CDT THU MAR 23 2017

NOTE: "FAIR" INDICATES FEW OR NO CLOUDS BELOW 12,000 FEET WITH NO
SIGNIFICANT WEATHER AND/OR OBSTRUCTIONS TO VISIBILITY.

WIZ001-002-006>008-014>016-023>028-240300-
NORTHWEST WISCONSIN

CITY           SKY/WX    TMP DP  RH WIND       PRES   REMARKS
SUPERIOR ARPT  MIX PCPN  33  32  99 E5        29.94F WCI  28
ASHLAND        LGT RAIN  33  30  88 NW7       29.96R FOG     WCI  27
HAYWARD        LGT RAIN  36  29  75 CALM      29.92R
SIREN          MIX PCPN  34  32  94 CALM      29.90S
CUMBERLAND     CLOUDY    36  30  80 S9        29.89R WCI  29
RICE LAKE      CLOUDY    39  29  68 CALM      29.91R
CHETEK         CLOUDY    39  32  75 S6        29.89R WCI  35
LADYSMITH      CLOUDY    38  28  69 S3        29.92R
EAU CLAIRE     CLOUDY    41  31  67 S10       29.87F
MENOMONIE      CLOUDY    40  33  75 SE9       29.88F WCI  34
NEW RICHMOND   DRIZZLE   37  34  90 SE3       29.86F
OSCEOLA        LGT RAIN  37  37 100 E3        29.90F
$$

WIZ003>005-009-010-017-018-240300-
NORTH CENTRAL WISCONSIN

CITY           SKY/WX    TMP DP  RH WIND       PRES   REMARKS
MANITOWISH WTR LGT RAIN  33  27  77 S6        29.86S WCI  28
ARBOR VITAE    LGT RAIN  37  26  65 S5        29.88S WCI  33
WOODRUFF       LGT RAIN  37  26  65 S5        29.88S WCI  33
RHINELANDER    LGT RAIN  37  25  61 S6        29.89F WCI  32
EAGLE RIVER    LGT RAIN  33  24  67 SE5       29.88F WCI  29
LAND O LAKES   MIX PCPN  34  25  69 SE8       29.90F WCI  27
PHILLIPS       LGT RAIN  36  26  66 S3        29.88R
TOMAHAWK       RAIN      34  28  78 CALM      29.90R
MEDFORD        CLOUDY    36  26  67 S9        29.88R WCI  29
MERRILL        CLOUDY    37  28  70 S3        29.91R
$$

WIZ029-030-035-036-043>047-240300-
CENTRAL WISCONSIN

CITY           SKY/WX    TMP DP  RH WIND       PRES   REMARKS
WAUSAU         CLOUDY    36  28  73 S13       29.91S WCI  27
MOSINEE        CLOUDY    36  28  75 SE10G16   29.91F WCI  28
MARSHFIELD     CLOUDY    38  28  67 S14       29.90R WCI  30
STEVENS POINT  CLOUDY    35  28  76 SE6       29.94R WCI  30
WAUPACA        CLOUDY    37  32  83 SE7       29.96F WCI  31
WAUTOMA        CLOUDY    38  32  79 S6        29.97S WCI  33
WISC RAPIDS    CLOUDY    39  30  70 SE8       29.93F WCI  33
CAMP DOUGLAS   CLOUDY    38  34  85 SE9       29.92R WCI  31
$$

WIZ011>013-019>022-031-037>040-048>050-240300-
NORTHEAST WISCONSIN

CITY           SKY/WX    TMP DP  RH WIND       PRES   REMARKS
ANTIGO         MIX PCPN  32  28  84 S15G21    29.89F WCI  22
SHAWANO        RAIN      37  28  69 SE12      29.93F WCI  30
OCONTO         CLOUDY    36  26  69 S9        29.98F WCI  29
STURGEON BAY   LGT RAIN  37  26  64 S17G23    30.01F WCI  27
GREEN BAY      CLOUDY    37  29  72 S13       30.00F WCI  29
MANITOWOC      LGT RAIN  37  30  75 SE13      30.02F WCI  29
APPLETON       LGT RAIN  36  28  75 SE10      29.97F WCI  28
CLINTONVILLE   LGT RAIN  36  28  75 S7        29.96F WCI  30
OSHKOSH        CLOUDY    37  30  75 VRB5      29.98F WCI  33
$$

WIZ032>034-041-042-053>061-240300-
SOUTHWEST WISCONSIN

CITY           SKY/WX    TMP DP  RH WIND       PRES   REMARKS
LA CROSSE      CLOUDY    41  35  79 CALM      29.93R
SPARTA         CLOUDY    39  36  89 CALM      29.92R
VIROQUA        CLOUDY    36  34  92 SE21G29   29.85F WCI  25
BOSCOBEL       MOCLDY    42  33  70 CALM      29.95F
PRAIRIE DU CHI CLOUDY    40  33  74 SE9       29.95R WCI  34
PLATTEVILLE    CLOUDY    39  33  77 SE14G23   29.93F WCI  31
$$

WIZ056-057-062-063-064-067-068-240300-
SOUTH CENTRAL WISCONSIN

CITY           SKY/WX    TMP DP  RH WIND       PRES   REMARKS
REEDSBURG      CLOUDY    38  35  89 S9G16     29.92R WCI  31
BARABOO/DELLS  CLOUDY    38  34  84 S14       29.93R WCI  30
LONE ROCK      PTCLDY    39  33  79 SE8       29.96R WCI  33
MINERAL POINT  CLOUDY    39  36  87 SE15      29.94R WCI  31
MADISON        CLOUDY    40  34  79 SE15      29.96F WCI  32
MIDDLETON      CLOUDY    40  35  84 SE9       29.97F WCI  33
WATERTOWN      TSTM      36  36 100 SE12      29.98F WCI  28
MONROE         CLOUDY    41  32  70 SE16      29.97F
JANESVILLE     CLOUDY    45  34  65 SE8       30.01F
$$

WIZ051-052-058>065-066-070>072-240300-
SOUTHEAST WISCONSIN

CITY           SKY/WX    TMP DP  RH WIND       PRES   REMARKS
MILWAUKEE      TSTM      41  33  73 CALM      30.09R
WAUKESHA       RAIN      36  32  87 SE7       30.05F WCI  30
MILWAUKEE/TIMM TSTM      39  32  75 E7        30.06S WCI  34
RACINE         TSTM      41  35  79 VRB6      30.11R
KENOSHA        CLOUDY    44  33  65 N8        30.07R
FOND DU LAC    CLOUDY    38  29  70 S17       29.94F WCI  28
SHEBOYGAN      RAIN      36  31  82 S14G22    29.98F WCI  27
WEST BEND      LGT RAIN  36  34  93 S7        30.03F WCI  30
JUNEAU         CLOUDY    36  32  86 SE14      29.97F WCI  27
$$

LSZ147-162-240300-
LAKE SUPERIOR

STATION/POSITION TIME  TEMP    WIND        PRES    WAVE
                       AIR SEA DIR/SP/G            HT/PER
                 (UTC) (F)     (DEG/KT/KT) (MB)    (FT/S)
DEVILS ISLAND    0200   33      CALM  /  1 1015.6R
PORT WING        0140   35      CALM  /  5 1014.6R
SAXON HARBOR     0130   34      CALM  /  3 1012.5R
$$

LMZ867-665-643>646-240300-
LAKE MICHIGAN

STATION/POSITION TIME  TEMP    WIND        PRES    WAVE
                       AIR SEA DIR/SP/G            HT/PER
                 (UTC) (F)     (DEG/KT/KT) (MB)    (FT/S)
CHAMBERS ISLAND  0140   35     140/  9/ 16 1015.6F
NORTHPORT PIER   0140   35     150/  6/ 10 1017.3F
SISTER BAY       0005   37     170/ 16/ 22   N/A
KEWAUNEE LAKESHO 0148   38     190/ 13/ 15 1016.9F
SHEBOYGAN LAKESH 0200   36     160/ 25/ 28 1015.2F
PORT WASHINGTON  0140   39     160/  4/  5 1020.7R
MILWAUKEE LAKESH 0150   38     120/  2/  4   N/A
KENOSHA   LAKESH 0200   43     330/ 10/ 13 1019.0
$$

TC  - TEMPERATURE IN CELSIUS
VSB - VISIBILITY IN STATUTE MILES
WCI - WIND CHILL INDEX
HX  - HEAT INDEX




USA.gov is the U.S. government's official web portal to all federal, state and local government web resources and services.